Location: Unspecified
(33.9239°N, 118.0544°W)
Time: 12:10:56
(UTC-07:00)

Daily predictions for brighter satellites

Satellite Brightness Start Highest point End
(mag) Time Altitude Azimuth Time Altitude Azimuth Time Altitude Azimuth
Iridium 4 Rocket 4.0 20:15:04 10° NNE 20:19:51 43° E 20:25:02 10° SSE
Cosmos 1943 4.0 20:14:34 10° SSW 20:20:07 59° WNW 20:25:40 10° NNE
RESURS DK-1 2.3 20:22:05 10° SSW 20:26:12 76° ESE 20:30:19 10° NNE
Cosmos 883 Rocket 4.5 20:21:27 10° S 20:27:33 85° E 20:33:45 10° N
Cosmos 1538 Rocket 3.9 20:26:48 10° S 20:31:54 69° ESE 20:37:02 10° NNE
Okean 1 3.4 20:28:25 10° S 20:32:16 53° E 20:36:09 10° NNE
Cosmos 405 Rocket 4.1 20:34:20 11° SE 20:36:53 19° E 20:39:35 10° NE
Cosmos 1455 Rocket 3.8 20:33:03 10° NNE 20:37:03 35° E 20:40:51 11° SE
Cosmos 44 4.0 20:33:01 10° NW 20:37:08 43° WSW 20:41:18 10° S
Abrixas 2.4 20:34:31 10° WNW 20:37:14 67° SW 20:39:28 14° SE
Tiangong 2 2.0 20:34:47 10° SSW 20:37:34 28° SE 20:40:20 10° E
DEBRIS 2.8 20:35:30 10° SW 20:38:04 82° SE 20:44:39 10° NE
Cosmos 1975 3.5 20:34:27 10° NNE 20:38:14 36° E 20:41:51 11° SSE
YAOGAN 6 4.2 20:39:52 13° ESE 20:41:47 19° ENE 20:44:17 10° NNE
NOSS 2-2 (E) 3.4 20:38:33 10° SSW 20:42:25 56° ESE 20:46:39 10° NE
ISS -2.1 20:41:08 10° SSE 20:43:04 15° SE 20:43:04 15° SE
SAR-Lupe-4 4.3 20:40:32 12° SE 20:43:26 36° ENE 20:46:45 10° N
Cosmos 2369 Rocket 2.4 20:38:16 10° NNW 20:43:55 73° WSW 20:49:33 10° SSE
Helios 1B rocket 2.4 20:39:51 10° NNE 20:43:56 62° E 20:48:01 10° S
Cosmos 1939 Rocket 3.2 20:45:14 13° SE 20:48:26 43° ENE 20:52:05 10° N
Meteor 1-29 3.0 20:45:52 10° NNE 20:49:10 53° E 20:52:27 10° S
Cosmos 1437 3.0 20:49:18 10° S 20:52:22 45° E 20:55:28 10° NNE
Cosmos 1500 3.1 20:52:23 10° N 20:56:09 75° E 20:59:30 13° S
COSMOS 2455 3.1 20:50:47 10° NNW 20:56:42 57° ENE 21:01:12 17° SE
Cosmos 1709 Rocket 4.0 20:52:32 10° N 20:58:50 86° W 21:05:00 10° S
OAO 2 Rocket 3.2 20:54:22 10° WSW 20:59:17 75° SSE 21:04:18 10° E
Cosmos 1818 3.7 20:54:27 10° SSW 20:59:52 81° WNW 21:05:21 10° NNE
SAR-Lupe-1 4.3 20:57:52 19° SE 21:00:12 52° ENE 21:03:42 10° N
CZ-4B DEB 2.6 20:59:52 23° SSE 21:01:32 58° ENE 21:04:29 10° N
USA 186 3.1 20:58:32 10° S 21:01:35 38° W 21:04:39 10° NNW
Cosmos 1943 Rocket 2.1 20:56:54 10° NNW 21:02:32 84° ENE 21:07:04 16° SSE
ERS-1 Rocket 3.7 21:01:30 19° SE 21:04:26 35° ENE 21:08:58 10° N
H-2A R/B 4.0 21:04:45 10° E 21:06:17 11° ENE 21:07:50 10° NE
Meteor 1-12 Rocket 4.4 21:00:55 10° N 21:06:58 89° W 21:12:56 10° S
COSMOS 2406 3.3 21:01:25 10° S 21:07:00 57° ESE 21:12:36 10° NNE
USA 81 4.0 21:07:33 10° S 21:12:49 89° E 21:18:08 10° N
Cosmos 2112 Rocket 4.3 21:08:28 10° S 21:13:26 45° ESE 21:18:22 10° NNE
NOSS 3-2 (C) 4.3 21:06:02 10° NW 21:13:43 67° WSW 21:20:50 14° SSE
ARGOS 4.3 21:13:55 20° ESE 21:16:08 27° ENE 21:20:35 10° NNE
SJ-11-01 4.3 21:13:40 15° S 21:17:33 79° WSW 21:22:15 10° NNW
Cosmos 1743 2.9 21:15:06 10° N 21:18:55 55° E 21:20:24 33° SE
CZ-3A R/B 1.7 21:12:25 10° SSW 21:18:57 39° SE 21:19:42 33° ESE
SL-27 R/B 3.0 21:24:26 39° ESE 21:24:37 39° ESE 21:28:04 10° NNE
NOSS 2-2 (D) 4.1 21:21:21 10° SW 21:25:13 54° WNW 21:29:29 10° NNE
Cosmos 1536 Rocket 4.3 21:23:39 10° SSW 21:27:53 52° W 21:32:06 10° N
ASTRO E2 2.7 21:24:08 10° W 21:28:04 60° S 21:29:07 43° ESE
Cosmos 192 4.4 21:29:14 24° S 21:31:57 54° ESE 21:36:44 10° NNE
SL-08 ROCKET BODY 4.5 21:30:24 10° N 21:36:35 82° W 21:41:05 20° S
Helios 1A 4.5 21:33:06 11° SSW 21:36:42 34° W 21:40:33 10° NNW
Cosmos 1680 Rocket 3.5 21:32:02 10° SSW 21:37:16 87° WNW 21:42:31 10° NNE
Aureole 1 Rocket 2.2 21:36:14 39° S 21:37:26 82° ESE 21:40:35 10° NNE
Cosmos 2184 Rocket 3.9 21:31:11 10° N 21:37:33 78° E 21:41:15 26° SSE
CENTAUR R/B 3.2 21:30:13 10° NNW 21:38:16 69° ENE 21:42:54 30° SE
Cosmos 2074 Rocket 3.9 21:32:29 10° N 21:38:46 83° E 21:42:34 26° S
Cosmos 405 4.2 21:35:48 10° NNE 21:38:31 29° ENE 21:38:31 29° ENE
Meteor 2-13 Rocket 4.3 21:33:39 10° N 21:39:44 80° E 21:43:05 28° SSE
MetOp-B 4.2 21:42:24 38° SE 21:44:24 64° ENE 21:49:42 10° N
Cosmos 1666 2.5 21:48:03 10° N 21:51:48 82° W 21:52:10 70° SSW
Meteor 2-4 Rocket 3.8 21:49:08 18° SSW 21:53:20 77° W 21:59:05 10° N
SPOT 5 2.7 21:53:00 52° E 21:53:23 54° ENE 21:57:36 10° N
Meteor 2-9 Rocket 4.1 21:48:01 10° N 21:53:30 72° E 21:55:15 44° SSE
SPOT 1/Viking Rocket 4.0 21:56:00 41° E 21:56:48 44° ENE 22:01:41 10° N
SL-08 RB Rocket 3.8 21:59:02 51° E 21:59:15 52° ENE 22:03:35 10° N
Cosmos 1025 Rocket 2.9 21:59:36 64° S 22:00:16 89° WNW 22:04:33 10° N
ASTEX 1 4.0 22:02:58 29° SSW 22:05:14 52° W 22:10:02 10° NNW
Cosmos 1833 Rocket 4.4 22:10:08 18° ENE 22:10:08 18° ENE 22:12:08 10° NE
Nadezhda 1 Rocket 4.5 22:05:16 16° SSW 22:10:21 60° W 22:16:40 10° N
Terra 3.2 22:11:45 26° ENE 22:11:45 26° ENE 22:15:18 10° NNE
Tiangong 2 3.0 22:11:14 10° W 22:13:17 30° WNW 22:13:17 30° WNW
ISS -0.8 22:16:14 10° WSW 22:16:17 10° WSW 22:16:17 10° WSW
Cosmos 2154 Rocket 3.9 22:14:38 10° N 22:21:01 88° W 22:22:44 52° S
H-2A R/B 3.5 22:22:16 29° NE 22:22:16 29° NE 22:25:27 10° N
Cosmos 1371 Rocket 4.0 22:18:01 10° N 22:23:18 64° ENE 22:23:26 64° E
SL-8 Rocket 4.4 22:21:06 10° N 22:27:01 43° E 22:27:14 43° E
Meteor 1-15 Rocket 4.1 22:24:54 10° NNW 22:30:30 77° W 22:31:13 66° SSW
Cosmos 1980 Rocket 4.5 22:37:07 10° NE 22:38:44 11° NE 22:39:36 11° ENE
OAO 2 Rocket 3.6 22:39:08 10° W 22:43:25 64° WNW 22:43:25 64° WNW
Gbstr 26 Del rocket 4.5 22:36:53 10° NW 22:44:54 71° SW 22:46:26 58° S
H-2A R/B 2.1 22:45:20 66° W 22:45:20 66° W 22:50:01 10° NNW
Cosmos 2341 Rocket 4.0 22:41:23 10° N 22:47:42 75° W 22:48:37 64° SSW
DMSP B5D2-2 4.3 22:50:23 10° N 22:55:36 63° WNW 22:55:47 62° W
ARGOS 4.3 22:55:25 31° WSW 22:56:11 33° W 23:01:02 10° NW
USA 267 3.1 22:58:53 10° NE 23:05:27 88° NW 23:06:48 60° SW
Cosmos 2218 Rocket 3.9 22:59:20 10° N 23:05:06 73° NE 23:05:06 73° NE
Cosmos 2082 Rocket 2.5 23:06:38 60° NNE 23:06:38 60° NNE 23:11:14 10° NNE
Cosmos 2278 4.0 23:00:48 10° NNW 23:05:47 62° NNE 23:05:47 62° NNE
Cosmos 2369 4.1 23:19:01 10° NNW 23:23:40 60° NNW 23:23:40 60° NNW
CENTAUR R/B 4.5 23:22:12 10° WNW 23:28:31 25° WSW 23:30:06 24° SW
Nadezhda 3 Rocket 4.5 23:32:43 52° NE 23:32:43 52° NE 23:37:44 10° NNE
Cosmos 1697 Rocket 3.5 23:31:31 10° NNW 23:35:40 46° NNE 23:35:40 46° NNE
Terra 3.9 23:50:38 21° WNW 23:50:38 21° WNW 23:52:56 10° NW
Cosmos 1833 Rocket 3.8 23:51:46 39° NW 23:51:46 39° NW 23:56:41 10° N
